#Datum;Uhrzeit;WR;Pac;DaySum;Status;WR;Pac;DaySum;Status;Pdc1;Udc;Temp;WR;Pac;DaySum;Status;Pdc1;Udc;Temp;WR;Pac;DaySum;Status;Pdc1;Udc;Temp;WR;Pac;DaySum;Status;Pdc1;Pdc2;Udc1;Udc2;Temp;WR;Pac;DaySum;Status;Pdc1;Pdc2;Udc1;Udc2;Temp;WR;Pac;DaySum;Status;Pdc1;Udc;Temp;WR;Pac;DaySum;Status;Pdc1;Udc;Temp;WR;Pac;DaySum;Status;Pdc1;Udc;Temp
03.02.21;23:55:00;1;543;14529;0;2;0;3077;0;0;0;0;3;0;1908;0;0;0;0;4;0;2780;0;0;0;0;5;0;0;0;0;0;0;0;0;6;0;5380;0;0;0;0;0;0;7;0;3795;0;0;0;0;8;0;3806;0;0;0;0;9;0;2047;0;0;0;0
03.02.21;23:50:00;1;514;14484;0;2;0;3077;0;0;0;0;3;0;1908;0;0;0;0;4;0;2780;0;0;0;0;5;0;0;0;0;0;0;0;0;6;0;5380;0;0;0;0;0;0;7;0;3795;0;0;0;0;8;0;3806;0;0;0;0;9;0;2047;0;0;0;0
03.02.21;23:45:00;1;584;14441;0;2;0;3077;0;0;0;0;3;0;1908;0;0;0;0;4;0;2780;0;0;0;0;5;0;0;0;0;0;0;0;0;6;0;5380;0;0;0;0;0;0;7;0;3795;0;0;0;0;8;0;3806;0;0;0;0;9;0;2047;0;0;0;0
03.02.21;23:40:00;1;580;14392;0;2;0;3077;0;0;0;0;3;0;1908;0;0;0;0;4;0;2780;0;0;0;0;5;0;0;0;0;0;0;0;0;6;0;5380;0;0;0;0;0;0;7;0;3795;0;0;0;0;8;0;3806;0;0;0;0;9;0;2047;0;0;0;0
03.02.21;23:35:00;1;546;14344;0;2;0;3077;0;0;0;0;3;0;1908;0;0;0;0;4;0;2780;0;0;0;0;5;0;0;0;0;0;0;0;0;6;0;5380;0;0;0;0;0;0;7;0;3795;0;0;0;0;8;0;3806;0;0;0;0;9;0;2047;0;0;0;0
03.02.21;23:30:00;1;586;14299;0;2;0;3077;0;0;0;0;3;0;1908;0;0;0;0;4;0;2780;0;0;0;0;5;0;0;0;0;0;0;0;0;6;0;5380;0;0;0;0;0;0;7;0;3795;0;0;0;0;8;0;3806;0;0;0;0;9;0;2047;0;0;0;0
03.02.21;23:25:00;1;1011;14248;0;2;0;3077;0;0;0;0;3;0;1908;0;0;0;0;4;0;2780;0;0;0;0;5;0;0;0;0;0;0;0;0;6;0;5380;0;0;0;0;0;0;7;0;3795;0;0;0;0;8;0;3806;0;0;0;0;9;0;2047;0;0;0;0
03.02.21;23:20:00;1;598;14166;0;2;0;3077;0;0;0;0;3;0;1908;0;0;0;0;4;0;2780;0;0;0;0;5;0;0;0;0;0;0;0;0;6;0;5380;0;0;0;0;0;0;7;0;3795;0;0;0;0;8;0;3806;0;0;0;0;9;0;2047;0;0;0;0
03.02.21;23:15:00;1;560;14117;0;2;0;3077;0;0;0;0;3;0;1908;0;0;0;0;4;0;2780;0;0;0;0;5;0;0;0;0;0;0;0;0;6;0;5380;0;0;0;0;0;0;7;0;3795;0;0;0;0;8;0;3806;0;0;0;0;9;0;2047;0;0;0;0
03.02.21;23:10:00;1;602;14071;0;2;0;3077;0;0;0;0;3;0;1908;0;0;0;0;4;0;2780;0;0;0;0;5;0;0;0;0;0;0;0;0;6;0;5380;0;0;0;0;0;0;7;0;3795;0;0;0;0;8;0;3806;0;0;0;0;9;0;2047;0;0;0;0
03.02.21;23:05:00;1;669;14022;0;2;0;3077;0;0;0;0;3;0;1908;0;0;0;0;4;0;2780;0;0;0;0;5;0;0;0;0;0;0;0;0;6;0;5380;0;0;0;0;0;0;7;0;3795;0;0;0;0;8;0;3806;0;0;0;0;9;0;2047;0;0;0;0
03.02.21;23:00:00;1;545;13966;0;2;0;3077;0;0;0;0;3;0;1908;0;0;0;0;4;0;2780;0;0;0;0;5;0;0;0;0;0;0;0;0;6;0;5380;0;0;0;0;0;0;7;0;3795;0;0;0;0;8;0;3806;0;0;0;0;9;0;2047;0;0;0;0
03.02.21;22:55:00;1;523;13919;0;2;0;3077;0;0;0;0;3;0;1908;0;0;0;0;4;0;2780;0;0;0;0;5;0;0;0;0;0;0;0;0;6;0;5380;2;0;0;0;0;0;7;0;3795;0;0;0;0;8;0;3806;0;0;0;0;9;0;2047;0;0;0;0
03.02.21;22:50:00;1;514;13878;0;2;0;3077;0;0;0;0;3;0;1908;0;0;0;0;4;0;2780;0;0;0;0;5;0;0;0;0;0;0;0;0;6;0;5380;2;0;0;0;0;0;7;0;3795;0;0;0;0;8;0;3806;0;0;0;0;9;0;2047;0;0;0;0
03.02.21;22:45:00;1;538;13832;0;2;0;3077;0;0;0;0;3;0;1908;0;0;0;0;4;0;2780;0;0;0;0;5;0;0;0;0;0;0;0;0;6;0;5380;2;0;0;0;0;0;7;0;3795;0;0;0;0;8;0;3806;0;0;0;0;9;0;2047;0;0;0;0
03.02.21;22:40:00;1;540;13788;0;2;0;3077;0;0;0;0;3;0;1908;0;0;0;0;4;0;2780;0;0;0;0;5;0;0;0;0;0;0;0;0;6;0;5380;2;0;0;0;0;0;7;0;3795;0;0;0;0;8;0;3806;0;0;0;0;9;0;2047;0;0;0;0
03.02.21;22:35:00;1;714;13743;0;2;0;3077;0;0;0;0;3;0;1908;0;0;0;0;4;0;2780;0;0;0;0;5;0;0;0;0;0;0;0;0;6;0;5380;2;0;0;0;0;0;7;0;3795;0;0;0;0;8;0;3806;0;0;0;0;9;0;2047;0;0;0;0
03.02.21;22:30:00;1;486;13697;0;2;0;3077;0;0;0;0;3;0;1908;0;0;0;0;4;0;2780;0;0;0;0;5;0;0;0;0;0;0;0;0;6;0;5380;2;0;0;0;0;0;7;0;3795;0;0;0;0;8;0;3806;0;0;0;0;9;0;2047;0;0;0;0
03.02.21;22:25:00;1;527;13656;0;2;0;3077;0;0;0;0;3;0;1908;0;0;0;0;4;0;2780;0;0;0;0;5;0;0;0;0;0;0;0;0;6;0;5380;2;0;0;0;0;0;7;0;3795;0;0;0;0;8;0;3806;0;0;0;0;9;0;2047;0;0;0;0
03.02.21;22:20:00;1;532;13612;0;2;0;3077;0;0;0;0;3;0;1908;0;0;0;0;4;0;2780;0;0;0;0;5;0;0;0;0;0;0;0;0;6;0;5380;2;0;0;0;0;0;7;0;3795;0;0;0;0;8;0;3806;0;0;0;0;9;0;2047;0;0;0;0
03.02.21;22:15:00;1;493;13569;0;2;0;3077;0;0;0;0;3;0;1908;0;0;0;0;4;0;2780;0;0;0;0;5;0;0;0;0;0;0;0;0;6;0;5380;2;0;0;0;0;0;7;0;3795;0;0;0;0;8;0;3806;0;0;0;0;9;0;2047;0;0;0;0
03.02.21;22:10:00;1;512;13528;0;2;0;3077;0;0;0;0;3;0;1908;0;0;0;0;4;0;2780;0;0;0;0;5;0;0;0;0;0;0;0;0;6;0;5380;2;0;0;0;0;0;7;0;3795;0;0;0;0;8;0;3806;0;0;0;0;9;0;2047;0;0;0;0
03.02.21;22:05:00;1;552;13486;0;2;0;3077;0;0;0;0;3;0;1908;0;0;0;0;4;0;2780;0;0;0;0;5;0;0;0;0;0;0;0;0;6;0;5380;2;0;0;0;0;0;7;0;3795;0;0;0;0;8;0;3806;0;0;0;0;9;0;2047;0;0;0;0
03.02.21;22:00:00;1;559;13440;0;2;0;3077;0;0;0;0;3;0;1908;0;0;0;0;4;0;2780;0;0;0;0;5;0;0;0;0;0;0;0;0;6;0;5380;2;0;0;0;0;0;7;0;3795;0;0;0;0;8;0;3806;0;0;0;0;9;0;2047;0;0;0;0
03.02.21;21:55:00;1;641;13393;0;2;0;3077;0;0;0;0;3;0;1908;0;0;0;0;4;0;2780;0;0;0;0;5;0;0;0;0;0;0;0;0;6;0;5380;2;0;0;0;0;0;7;0;3795;0;0;0;0;8;0;3806;0;0;0;0;9;0;2047;0;0;0;0
03.02.21;21:50:00;1;622;13341;0;2;0;3077;0;0;0;0;3;0;1908;0;0;0;0;4;0;2780;0;0;0;0;5;0;0;0;0;0;0;0;0;6;0;5380;2;0;0;0;0;0;7;0;3795;0;0;0;0;8;0;3806;0;0;0;0;9;0;2047;0;0;0;0
03.02.21;21:45:00;1;591;13288;0;2;0;3077;0;0;0;0;3;0;1908;0;0;0;0;4;0;2780;0;0;0;0;5;0;0;0;0;0;0;0;0;6;0;5380;2;0;0;0;0;0;7;0;3795;0;0;0;0;8;0;3806;0;0;0;0;9;0;2047;0;0;0;0
03.02.21;21:40:00;1;713;13227;0;2;0;3077;0;0;0;0;3;0;1908;0;0;0;0;4;0;2780;0;0;0;0;5;0;0;0;0;0;0;0;0;6;0;5380;2;0;0;0;0;0;7;0;3795;0;0;0;0;8;0;3806;0;0;0;0;9;0;2047;0;0;0;0
03.02.21;21:35:00;1;512;13159;0;2;0;3077;0;0;0;0;3;0;1908;0;0;0;0;4;0;2780;0;0;0;0;5;0;0;0;0;0;0;0;0;6;0;5380;2;0;0;0;0;0;7;0;3795;0;0;0;0;8;0;3806;0;0;0;0;9;0;2047;0;0;0;0
03.02.21;21:30:00;1;1971;13115;0;2;0;3077;0;0;0;0;3;0;1908;0;0;0;0;4;0;2780;0;0;0;0;5;0;0;0;0;0;0;0;0;6;0;5380;2;0;0;0;0;0;7;0;3795;0;0;0;0;8;0;3806;0;0;0;0;9;0;2047;0;0;0;0
03.02.21;21:25:00;1;2435;12958;0;2;0;3077;0;0;0;0;3;0;1908;0;0;0;0;4;0;2780;0;0;0;0;5;0;0;0;0;0;0;0;0;6;0;5380;2;0;0;0;0;0;7;0;3795;0;0;0;0;8;0;3806;0;0;0;0;9;0;2047;0;0;0;0
03.02.21;21:20:00;1;2389;12754;0;2;0;3077;0;0;0;0;3;0;1908;0;0;0;0;4;0;2780;0;0;0;0;5;0;0;0;0;0;0;0;0;6;0;5380;2;0;0;0;0;0;7;0;3795;0;0;0;0;8;0;3806;0;0;0;0;9;0;2047;0;0;0;0
03.02.21;21:15:00;1;2351;12555;0;2;0;3077;0;0;0;0;3;0;1908;0;0;0;0;4;0;2780;0;0;0;0;5;0;0;0;0;0;0;0;0;6;0;5380;2;0;0;0;0;0;7;0;3795;0;0;0;0;8;0;3806;0;0;0;0;9;0;2047;0;0;0;0
03.02.21;21:10:00;1;1340;12358;0;2;0;3077;0;0;0;0;3;0;1908;0;0;0;0;4;0;2780;0;0;0;0;5;0;0;0;0;0;0;0;0;6;0;5380;2;0;0;0;0;0;7;0;3795;0;0;0;0;8;0;3806;0;0;0;0;9;0;2047;0;0;0;0
03.02.21;21:05:00;1;538;12246;0;2;0;3077;0;0;0;0;3;0;1908;0;0;0;0;4;0;2780;0;0;0;0;5;0;0;0;0;0;0;0;0;6;0;5380;2;0;0;0;0;0;7;0;3795;0;0;0;0;8;0;3806;0;0;0;0;9;0;2047;0;0;0;0
03.02.21;21:00:00;1;621;12200;0;2;0;3077;0;0;0;0;3;0;1908;0;0;0;0;4;0;2780;0;0;0;0;5;0;0;0;0;0;0;0;0;6;0;5380;2;0;0;0;0;0;7;0;3795;0;0;0;0;8;0;3806;0;0;0;0;9;0;2047;0;0;0;0
03.02.21;20:55:00;1;685;12145;0;2;0;3077;0;0;0;0;3;0;1908;0;0;0;0;4;0;2780;0;0;0;0;5;0;0;0;0;0;0;0;0;6;0;5380;2;0;0;0;0;0;7;0;3795;0;0;0;0;8;0;3806;0;0;0;0;9;0;2047;0;0;0;0
03.02.21;20:50:00;1;651;12088;0;2;0;3077;0;0;0;0;3;0;1908;0;0;0;0;4;0;2780;0;0;0;0;5;0;0;0;0;0;0;0;0;6;0;5380;2;0;0;0;0;0;7;0;3795;0;0;0;0;8;0;3806;0;0;0;0;9;0;2047;0;0;0;0
03.02.21;20:45:00;1;666;12033;0;2;0;3077;0;0;0;0;3;0;1908;0;0;0;0;4;0;2780;0;0;0;0;5;0;0;0;0;0;0;0;0;6;0;5380;2;0;0;0;0;0;7;0;3795;0;0;0;0;8;0;3806;0;0;0;0;9;0;2047;0;0;0;0
03.02.21;20:40:00;1;1248;11977;0;2;0;3077;0;0;0;0;3;0;1908;0;0;0;0;4;0;2780;0;0;0;0;5;0;0;0;0;0;0;0;0;6;0;5380;2;0;0;0;0;0;7;0;3795;0;0;0;0;8;0;3806;0;0;0;0;9;0;2047;0;0;0;0
03.02.21;20:35:00;1;2404;11870;0;2;0;3077;0;0;0;0;3;0;1908;0;0;0;0;4;0;2780;0;0;0;0;5;0;0;0;0;0;0;0;0;6;0;5380;2;0;0;0;0;0;7;0;3795;0;0;0;0;8;0;3806;0;0;0;0;9;0;2047;0;0;0;0
03.02.21;20:30:00;1;2370;11671;0;2;0;3077;0;0;0;0;3;0;1908;0;0;0;0;4;0;2780;0;0;0;0;5;0;0;0;0;0;0;0;0;6;0;5380;2;0;0;0;0;0;7;0;3795;0;0;0;0;8;0;3806;0;0;0;0;9;0;2047;0;0;0;0
03.02.21;20:25:00;1;1917;11472;0;2;0;3077;0;0;0;0;3;0;1908;0;0;0;0;4;0;2780;0;0;0;0;5;0;0;0;0;0;0;0;0;6;0;5380;2;0;0;0;0;0;7;0;3795;0;0;0;0;8;0;3806;0;0;0;0;9;0;2047;0;0;0;0
03.02.21;20:20:00;1;582;11318;0;2;0;3077;0;0;0;0;3;0;1908;0;0;0;0;4;0;2780;0;0;0;0;5;0;0;0;0;0;0;0;0;6;0;5380;2;0;0;0;0;0;7;0;3795;0;0;0;0;8;0;3806;0;0;0;0;9;0;2047;0;0;0;0
03.02.21;20:15:00;1;496;11269;0;2;0;3077;0;0;0;0;3;0;1908;0;0;0;0;4;0;2780;0;0;0;0;5;0;0;0;0;0;0;0;0;6;0;5380;2;0;0;0;0;0;7;0;3795;0;0;0;0;8;0;3806;0;0;0;0;9;0;2047;0;0;0;0
03.02.21;20:10:00;1;430;11224;0;2;0;3077;0;0;0;0;3;0;1908;0;0;0;0;4;0;2780;0;0;0;0;5;0;0;0;0;0;0;0;0;6;0;5380;2;0;0;0;0;0;7;0;3795;0;0;0;0;8;0;3806;0;0;0;0;9;0;2047;0;0;0;0
03.02.21;20:05:00;1;398;11187;0;2;0;3077;0;0;0;0;3;0;1908;0;0;0;0;4;0;2780;0;0;0;0;5;0;0;0;0;0;0;0;0;6;0;5380;2;0;0;0;0;0;7;0;3795;0;0;0;0;8;0;3806;0;0;0;0;9;0;2047;0;0;0;0
03.02.21;20:00:00;1;432;11154;0;2;0;3077;0;0;0;0;3;0;1908;0;0;0;0;4;0;2780;0;0;0;0;5;0;0;0;0;0;0;0;0;6;0;5380;2;0;0;0;0;0;7;0;3795;0;0;0;0;8;0;3806;0;0;0;0;9;0;2047;0;0;0;0
03.02.21;19:55:00;1;473;11118;0;2;0;3077;0;0;0;0;3;0;1908;0;0;0;0;4;0;2780;0;0;0;0;5;0;0;0;0;0;0;0;0;6;0;5380;2;0;0;0;0;0;7;0;3795;0;0;0;0;8;0;3806;0;0;0;0;9;0;2047;0;0;0;0
03.02.21;19:50:00;1;488;11079;0;2;0;3077;0;0;0;0;3;0;1908;0;0;0;0;4;0;2780;0;0;0;0;5;0;0;0;0;0;0;0;0;6;0;5380;2;0;0;0;0;0;7;0;3795;0;0;0;0;8;0;3806;0;0;0;0;9;0;2047;0;0;0;0
03.02.21;19:45:00;1;532;11037;0;2;0;3077;0;0;0;0;3;0;1908;0;0;0;0;4;0;2780;0;0;0;0;5;0;0;0;0;0;0;0;0;6;0;5380;2;0;0;0;0;0;7;0;3795;0;0;0;0;8;0;3806;0;0;0;0;9;0;2047;0;0;0;0
03.02.21;19:40:00;1;560;10993;0;2;0;3077;0;0;0;0;3;0;1908;0;0;0;0;4;0;2780;0;0;0;0;5;0;0;0;0;0;0;0;0;6;0;5380;2;0;0;0;0;0;7;0;3795;0;0;0;0;8;0;3806;0;0;0;0;9;0;2047;0;0;0;0
03.02.21;19:35:00;1;801;10947;0;2;0;3077;0;0;0;0;3;0;1908;0;0;0;0;4;0;2780;0;0;0;0;5;0;0;0;0;0;0;0;0;6;0;5380;2;0;0;0;0;0;7;0;3795;0;0;0;0;8;0;3806;0;0;0;0;9;0;2047;0;0;0;0
03.02.21;19:30:00;1;623;10880;0;2;0;3077;0;0;0;0;3;0;1908;0;0;0;0;4;0;2780;0;0;0;0;5;0;0;0;0;0;0;0;0;6;0;5380;2;0;0;0;0;0;7;0;3795;0;0;0;0;8;0;3806;0;0;0;0;9;0;2047;0;0;0;0
03.02.21;19:25:00;1;634;10829;0;2;0;3077;0;0;0;0;3;0;1908;0;0;0;0;4;0;2780;0;0;0;0;5;0;0;0;0;0;0;0;0;6;0;5380;2;0;0;0;0;0;7;0;3795;0;0;0;0;8;0;3806;0;0;0;0;9;0;2047;0;0;0;0
03.02.21;19:20:00;1;599;10776;0;2;0;3077;0;0;0;0;3;0;1908;0;0;0;0;4;0;2780;0;0;0;0;5;0;0;0;0;0;0;0;0;6;0;5380;2;0;0;0;0;0;7;0;3795;0;0;0;0;8;0;3806;0;0;0;0;9;0;2047;0;0;0;0
03.02.21;19:15:00;1;819;10725;0;2;0;3077;0;0;0;0;3;0;1908;0;0;0;0;4;0;2780;0;0;0;0;5;0;0;0;0;0;0;0;0;6;0;5380;2;0;0;0;0;0;7;0;3795;0;0;0;0;8;0;3806;0;0;0;0;9;0;2047;0;0;0;0
03.02.21;19:10:00;1;1857;10638;0;2;0;3077;0;0;0;0;3;0;1908;0;0;0;0;4;0;2780;0;0;0;0;5;0;0;0;0;0;0;0;0;6;0;5380;2;0;0;0;0;0;7;0;3795;0;0;0;0;8;0;3806;0;0;0;0;9;0;2047;0;0;0;0
03.02.21;19:05:00;1;636;10500;0;2;0;3077;0;0;0;0;3;0;1908;0;0;0;0;4;0;2780;0;0;0;0;5;0;0;0;0;0;0;0;0;6;0;5380;2;0;0;0;0;0;7;0;3795;0;0;0;0;8;0;3806;0;0;0;0;9;0;2047;0;0;0;0
03.02.21;19:00:00;1;1678;10405;0;2;0;3077;0;0;0;0;3;0;1908;0;0;0;0;4;0;2780;0;0;0;0;5;0;0;0;0;0;0;0;0;6;0;5380;2;0;0;0;0;0;7;0;3795;0;0;0;0;8;0;3806;0;0;0;0;9;0;2047;0;0;0;0
03.02.21;18:55:00;1;1352;10244;0;2;0;3077;0;0;0;0;3;0;1908;0;0;0;0;4;0;2780;0;0;0;0;5;0;0;0;0;0;0;0;0;6;0;5380;2;0;0;0;0;0;7;0;3795;0;0;0;0;8;0;3806;0;0;0;0;9;0;2047;0;0;0;0
03.02.21;18:50:00;1;3612;10111;0;2;0;3077;0;0;0;0;3;0;1908;0;0;0;0;4;0;2780;0;0;0;0;5;0;0;0;0;0;0;0;0;6;0;5380;2;0;0;0;0;0;7;0;3795;0;0;0;0;8;0;3806;0;0;0;0;9;0;2047;0;0;0;0
03.02.21;18:45:00;1;547;9794;0;2;0;3077;0;0;0;0;3;0;1908;0;0;0;0;4;0;2780;0;0;0;0;5;0;0;0;0;0;0;0;0;6;0;5380;2;0;0;0;0;0;7;0;3795;0;0;0;0;8;0;3806;0;0;0;0;9;0;2047;0;0;0;0
03.02.21;18:40:00;1;692;9749;0;2;0;3077;0;0;0;0;3;0;1908;0;0;0;0;4;0;2780;0;0;0;0;5;0;0;0;0;0;0;0;0;6;0;5380;2;0;0;0;0;0;7;0;3795;0;0;0;0;8;0;3806;0;0;0;0;9;0;2047;0;0;0;0
03.02.21;18:35:00;1;731;9691;0;2;0;3077;0;0;0;0;3;0;1908;0;0;0;0;4;0;2780;0;0;0;0;5;0;0;0;0;0;0;0;0;6;0;5380;2;0;0;0;0;0;7;0;3795;0;0;0;0;8;0;3806;0;0;0;0;9;0;2047;0;0;0;0
03.02.21;18:30:00;1;705;9630;0;2;0;3077;0;0;0;0;3;0;1908;0;0;0;0;4;0;2780;0;0;0;0;5;0;0;0;0;0;0;0;0;6;0;5380;2;0;0;0;0;0;7;0;3795;0;0;0;0;8;0;3806;0;0;0;0;9;0;2047;0;0;0;0
03.02.21;18:25:00;1;684;9571;0;2;0;3077;0;0;0;0;3;0;1908;0;0;0;0;4;0;2780;0;0;0;0;5;0;0;0;0;0;0;0;0;6;0;5380;2;0;0;0;0;0;7;0;3795;0;0;0;0;8;0;3806;0;0;0;0;9;0;2047;0;0;0;0
03.02.21;18:20:00;1;758;9513;0;2;0;3077;0;0;0;0;3;0;1908;0;0;0;0;4;0;2780;0;0;0;0;5;0;0;0;0;0;0;0;0;6;0;5380;2;0;0;0;0;0;7;0;3795;0;0;0;0;8;0;3806;0;0;0;0;9;0;2047;0;0;0;0
03.02.21;18:15:00;1;746;9450;0;2;0;3077;0;0;0;0;3;0;1908;0;0;0;0;4;0;2780;0;0;0;0;5;0;0;0;0;0;0;0;0;6;0;5380;2;0;0;0;0;0;7;0;3795;0;0;0;0;8;0;3806;0;0;0;0;9;0;2047;0;0;0;0
03.02.21;18:10:00;1;861;9386;0;2;0;3077;0;0;0;0;3;0;1908;0;0;0;0;4;0;2780;0;0;0;0;5;0;0;0;0;0;0;0;0;6;0;5380;2;0;0;0;0;0;7;0;3795;0;0;0;0;8;0;3806;0;0;0;0;9;0;2047;0;0;0;0
03.02.21;18:05:00;1;603;9320;0;2;0;3077;0;0;0;0;3;0;1908;0;0;0;0;4;0;2780;0;0;0;0;5;0;0;0;0;0;0;0;0;6;0;5380;2;0;0;0;0;0;7;0;3795;0;0;0;0;8;0;3806;0;0;0;0;9;0;2047;0;0;0;0
03.02.21;18:00:00;1;612;9270;0;2;0;3077;0;0;0;0;3;0;1908;0;0;0;0;4;0;2780;0;0;0;0;5;0;0;0;0;0;0;0;0;6;0;5380;2;0;0;0;0;0;7;0;3795;0;0;0;0;8;0;3806;0;0;0;0;9;0;2047;0;0;0;0
03.02.21;17:55:00;1;652;9219;0;2;0;3077;0;0;0;0;3;0;1908;0;0;0;0;4;0;2780;0;0;0;0;5;0;0;0;0;0;0;0;0;6;0;5380;2;0;0;0;0;0;7;0;3795;0;0;0;0;8;0;3806;0;0;0;0;9;0;2047;0;0;0;0
03.02.21;17:50:00;1;649;9165;0;2;0;3077;0;0;0;0;3;0;1908;0;0;0;0;4;0;2780;0;0;0;0;5;0;0;0;0;0;0;0;0;6;0;5380;2;0;0;0;0;0;7;0;3795;0;0;0;0;8;0;3806;0;0;0;0;9;0;2047;0;0;0;0
03.02.21;17:45:00;1;529;9108;0;2;0;3077;0;0;0;0;3;0;1908;0;0;0;0;4;0;2780;0;0;0;0;5;0;0;0;0;0;0;0;0;6;0;5380;2;0;0;0;0;0;7;0;3795;0;0;0;0;8;0;3806;0;0;0;0;9;0;2047;0;0;0;0
03.02.21;17:40:00;1;681;9064;0;2;0;3077;0;0;0;0;3;0;1908;0;0;0;0;4;0;2780;0;0;0;0;5;0;0;0;0;0;0;0;0;6;0;5380;2;0;0;0;0;0;7;0;3795;0;0;0;0;8;0;3806;0;0;0;0;9;0;2047;0;0;0;0
03.02.21;17:35:00;1;772;9007;0;2;0;3077;0;0;0;0;3;0;1908;0;0;0;0;4;0;2780;0;0;0;0;5;0;0;0;0;0;0;0;0;6;0;5380;2;0;0;0;0;0;7;0;3795;0;0;0;0;8;0;3806;0;0;0;0;9;0;2047;0;0;0;0
03.02.21;17:30:00;1;828;8943;0;2;0;3077;0;0;0;0;3;0;1908;0;0;0;0;4;0;2780;0;0;0;0;5;0;0;0;0;0;0;0;0;6;0;5380;2;0;0;0;0;0;7;0;3795;0;0;0;0;8;0;3806;0;0;0;0;9;0;2047;0;0;0;0
03.02.21;17:25:00;1;866;8874;0;2;0;3077;0;0;0;0;3;0;1908;0;0;0;0;4;0;2780;0;0;0;0;5;0;0;0;0;0;0;0;0;6;0;5380;2;0;0;0;0;0;7;0;3795;0;0;0;0;8;0;3806;0;0;0;0;9;0;2047;0;0;0;0
03.02.21;17:20:00;1;837;8801;0;2;0;3077;0;0;0;0;3;0;1908;0;0;31;1;4;0;2780;0;0;0;0;5;0;0;0;0;0;0;0;0;6;0;5380;2;0;0;0;0;0;7;0;3795;0;0;0;0;8;0;3806;0;0;0;0;9;0;2047;0;0;0;0
03.02.21;17:15:00;1;686;8732;0;2;0;3077;0;0;229;9;3;0;1908;6;0;302;14;4;0;2780;2;0;69;13;5;0;0;0;0;0;0;0;0;6;0;5380;2;0;0;0;0;0;7;0;3795;0;0;0;0;8;0;3806;0;0;0;0;9;0;2047;0;0;0;0
03.02.21;17:10:00;1;2431;8673;0;2;0;3077;6;0;322;11;3;0;1908;6;0;394;14;4;0;2780;1;0;122;14;5;0;0;0;0;0;0;0;0;6;0;5380;2;2;1;128;234;14;7;0;3795;0;0;128;8;8;0;3806;0;0;172;10;9;0;2047;0;0;229;10
03.02.21;17:05:00;1;4990;8522;0;2;0;3077;6;0;345;11;3;0;1908;6;2;414;14;4;0;2780;1;0;152;14;5;0;0;0;0;0;0;0;0;6;0;5380;23;4;4;270;444;20;7;0;3795;6;0;294;16;8;0;3806;6;0;300;16;9;0;2047;6;0;315;12
03.02.21;17:00:00;1;1362;8136;0;2;0;3077;6;0;339;11;3;0;1908;6;1;405;14;4;0;2780;1;0;144;14;5;0;0;0;0;0;0;0;0;6;0;5380;1;2;0;22;21;10;7;0;3795;6;0;282;16;8;0;3806;6;0;289;16;9;0;2047;6;0;306;12
03.02.21;16:55:00;1;379;8013;0;2;0;3077;6;0;330;11;3;0;1908;6;0;406;14;4;0;2780;1;0;132;14;5;0;0;0;0;0;0;0;0;6;0;5380;1;5;2;143;251;21;7;0;3795;6;0;260;17;8;0;3806;6;0;266;16;9;0;2047;6;0;287;12
03.02.21;16:50:00;1;345;7979;0;2;0;3077;6;0;350;11;3;0;1908;6;2;413;14;4;0;2780;1;0;160;14;5;0;0;0;0;0;0;0;0;6;0;5380;23;7;3;180;500;22;7;0;3795;6;0;311;17;8;0;3806;6;0;317;16;9;0;2047;6;0;332;12
03.02.21;16:45:00;1;331;7950;0;2;0;3077;6;0;381;11;3;1;1908;6;2;458;14;4;0;2780;1;0;209;15;5;0;0;0;0;0;0;0;0;6;6;5380;23;11;9;469;530;22;7;0;3795;6;0;379;17;8;0;3806;6;0;391;16;9;0;2047;6;0;419;12
03.02.21;16:40:00;1;358;7922;0;2;4;3077;6;8;400;11;3;0;1908;6;0;518;14;4;1;2780;3;1;199;15;5;0;0;0;0;0;0;0;0;6;52;5379;4;26;29;474;470;23;7;1;3795;6;4;445;17;8;0;3806;6;3;448;16;9;1;2047;6;4;467;12
03.02.21;16:35:00;1;379;7892;0;2;0;3076;6;0;400;11;3;0;1908;3;6;467;14;4;0;2780;1;0;226;15;5;0;0;0;0;0;0;0;0;6;0;5375;8;8;4;319;573;23;7;0;3795;6;2;432;17;8;2;3806;6;2;436;16;9;1;2047;6;3;477;12
03.02.21;16:30:00;1;308;7860;0;2;0;3076;6;0;386;12;3;0;1908;6;2;472;14;4;0;2780;3;0;203;15;5;0;0;0;0;0;0;0;0;6;0;5375;23;7;3;182;556;23;7;0;3795;6;1;398;17;8;0;3806;6;0;405;16;9;0;2047;4;2;416;12
03.02.21;16:25:00;1;365;7835;0;2;0;3076;6;0;383;12;3;1;1908;6;2;461;14;4;0;2780;1;0;210;15;5;0;0;0;0;0;0;0;0;6;0;5375;23;7;2;182;552;23;7;0;3795;6;0;398;17;8;0;3806;6;0;404;17;9;0;2047;3;0;422;12
03.02.21;16:20:00;1;362;7804;0;2;0;3076;6;0;388;12;3;1;1908;6;3;472;14;4;0;2780;1;0;207;16;5;0;0;0;0;0;0;0;0;6;13;5375;23;9;9;473;519;24;7;0;3795;6;0;418;17;8;0;3806;6;0;418;17;9;0;2047;6;1;436;12
03.02.21;16:15:00;1;387;7775;0;2;0;3076;6;0;409;12;3;2;1908;6;5;499;15;4;2;2780;3;2;199;16;5;0;0;0;0;0;0;0;0;6;62;5374;4;23;27;470;448;25;7;0;3795;3;1;449;18;8;1;3806;3;7;431;17;9;2;2047;6;3;491;12
03.02.21;16:10:00;1;360;7743;0;2;16;3076;6;24;399;12;3;0;1907;6;0;537;15;4;11;2780;3;11;199;16;5;0;0;0;0;0;0;0;0;6;84;5368;4;38;41;470;448;25;7;3;3795;6;7;471;18;8;3;3806;6;7;472;17;9;1;2047;6;5;520;12
03.02.21;16:05:00;1;339;7712;0;2;52;3075;6;74;372;13;3;2;1907;3;6;523;15;4;25;2779;3;26;198;16;5;0;0;0;0;0;0;0;0;6;111;5360;4;67;74;470;448;25;7;19;3795;6;27;467;18;8;16;3805;6;34;445;17;9;0;2047;6;5;526;13
03.02.21;16:00:00;1;375;7684;0;2;121;3071;4;151;365;13;3;26;1907;4;37;525;15;4;80;2777;3;83;201;16;5;0;0;0;0;0;0;0;0;6;186;5350;4;90;89;470;448;25;7;92;3793;4;129;455;18;8;91;3804;4;131;455;17;9;32;2047;6;43;509;13
03.02.21;15:55:00;1;368;7651;0;2;137;3060;4;168;370;13;3;67;1904;6;97;500;15;4;99;2770;3;103;210;16;5;0;0;0;0;0;0;0;0;6;210;5334;4;134;136;470;448;25;7;117;3785;4;147;437;18;8;108;3796;4;146;446;17;9;44;2045;6;63;511;13
03.02.21;15:50:00;1;375;7620;0;2;203;3049;4;237;373;13;3;124;1899;4;159;491;15;4;163;2761;5;169;222;16;5;0;0;0;0;0;0;0;0;6;302;5316;4;149;147;470;448;25;7;209;3775;4;245;450;18;8;208;3787;4;245;451;17;9;112;2041;4;139;492;13
03.02.21;15:45:00;1;311;7587;0;2;143;3032;4;171;374;12;3;83;1888;4;115;449;15;4;103;2748;5;107;212;16;5;0;0;0;0;0;0;0;0;6;224;5290;4;112;112;470;448;25;7;154;3758;4;191;434;18;8;162;3770;4;195;444;17;9;78;2031;4;99;472;12
03.02.21;15:40:00;1;304;7561;0;2;14;3020;6;23;403;12;3;3;1882;6;6;522;15;4;17;2739;3;18;199;16;5;0;0;0;0;0;0;0;0;6;104;5273;4;43;47;469;448;25;7;20;3745;4;37;429;18;8;28;3757;4;39;430;17;9;4;2026;6;11;501;13
03.02.21;15:35:00;1;312;7535;0;2;18;3019;4;27;397;13;3;3;1881;6;9;514;15;4;2;2737;3;2;199;16;5;0;0;0;0;0;0;0;0;6;96;5264;4;38;41;470;448;25;7;5;3743;6;9;469;18;8;6;3754;6;9;470;17;9;4;2025;6;12;487;13
03.02.21;15:30:00;1;314;7509;0;2;41;3017;6;65;364;13;3;3;1881;6;8;520;15;4;13;2737;3;13;199;16;5;0;0;0;0;0;0;0;0;6;103;5256;4;51;58;470;448;25;7;0;3743;6;0;499;18;8;0;3753;6;0;499;17;9;1;2025;6;5;528;13
03.02.21;15:25:00;1;320;7483;0;2;55;3014;4;83;358;13;3;4;1881;6;9;524;15;4;20;2736;3;21;198;16;5;0;0;0;0;0;0;0;0;6;115;5247;4;59;70;470;448;25;7;6;3743;3;8;481;18;8;3;3753;4;10;482;18;9;5;2025;6;11;503;13
03.02.21;15:20:00;1;397;7456;0;2;78;3010;4;106;365;13;3;13;1881;4;23;509;15;4;49;2734;3;50;198;16;5;0;0;0;0;0;0;0;0;6;145;5238;4;85;89;469;448;25;7;46;3742;4;85;432;18;8;48;3753;4;88;431;18;9;11;2024;3;17;506;13
03.02.21;15:15:00;1;403;7422;0;2;83;3003;4;112;362;13;3;9;1879;6;14;535;15;4;49;2730;3;51;198;16;5;0;0;0;0;0;0;0;0;6;149;5226;4;71;78;470;448;25;7;47;3738;4;91;434;18;8;53;3749;4;90;443;18;9;10;2023;6;17;516;13
03.02.21;15:10:00;1;352;7389;0;2;81;2996;4;109;361;13;3;15;1878;6;24;487;15;4;50;2726;3;52;198;16;5;0;0;0;0;0;0;0;0;6;143;5213;4;63;66;470;448;25;7;53;3734;4;88;405;18;8;54;3744;4;88;408;18;9;4;2022;6;8;543;13
03.02.21;15:05:00;1;395;7360;0;2;93;2989;4;122;356;13;3;16;1877;4;26;508;15;4;59;2722;3;62;198;16;5;0;0;0;0;0;0;0;0;6;163;5201;4;66;68;470;448;25;7;75;3730;4;110;432;18;8;80;3740;4;111;432;18;9;13;2022;6;21;521;13
03.02.21;15:00:00;1;378;7327;0;2;142;2982;4;174;371;13;3;82;1876;4;117;462;15;4;99;2717;3;103;215;16;5;0;0;0;0;0;0;0;0;6;220;5187;4;91;94;469;448;25;7;121;3723;4;167;440;18;8;130;3733;4;163;455;18;9;54;2021;6;73;489;13
03.02.21;14:55:00;1;372;7294;0;2;101;2970;4;130;362;13;3;19;1869;6;29;526;15;4;62;2709;3;64;199;16;5;0;0;0;0;0;0;0;0;6;172;5168;4;88;86;470;448;25;7;86;3713;4;124;432;18;8;87;3722;4;125;435;17;9;10;2017;4;14;551;13
03.02.21;14:50:00;1;428;7263;0;2;85;2961;4;114;364;13;3;19;1867;4;31;514;15;4;57;2704;3;60;200;17;5;0;0;0;0;0;0;0;0;6;153;5154;4;69;74;469;448;25;7;49;3706;4;62;456;18;8;45;3715;4;63;464;17;9;6;2016;6;9;548;13
03.02.21;14:45:00;1;322;7228;0;2;45;2954;4;71;355;13;3;4;1865;6;8;519;15;4;22;2698;3;23;199;17;5;0;0;0;0;0;0;0;0;6;97;5141;4;43;47;470;448;25;7;5;3701;6;9;478;18;8;4;3710;6;8;479;18;9;2;2015;6;5;528;14
03.02.21;14:40:00;1;332;7201;0;2;67;2950;4;94;357;13;3;9;1864;4;17;512;15;4;40;2696;3;41;199;17;5;0;0;0;0;0;0;0;0;6;126;5133;4;68;74;470;448;25;7;36;3700;6;65;400;18;8;35;3710;6;63;382;18;9;3;2015;6;6;539;14
03.02.21;14:35:00;1;345;7173;0;2;56;2944;4;83;361;13;3;3;1864;6;8;524;16;4;26;2693;3;27;199;17;5;0;0;0;0;0;0;0;0;6;112;5122;4;68;77;470;448;25;7;12;3697;3;22;459;18;8;4;3707;3;9;484;18;9;2;2015;6;7;534;14
03.02.21;14:30:00;1;306;7145;0;2;13;2940;3;23;401;13;3;2;1863;6;8;517;16;4;19;2691;3;19;199;17;5;0;0;0;0;0;0;0;0;6;94;5113;4;45;52;470;448;25;7;5;3696;6;16;449;18;8;2;3707;6;7;473;18;9;0;2015;6;0;547;14
03.02.21;14:25:00;1;319;7085;0;2;29;2939;4;46;380;13;3;2;1863;6;8;518;16;4;11;2689;3;12;199;17;5;0;0;0;0;0;0;0;0;6;97;5105;4;51;58;470;448;25;7;5;3696;6;16;452;19;8;5;3707;6;9;475;18;9;1;2015;4;5;524;14
03.02.21;14:20:00;1;415;7058;0;2;36;2937;6;59;373;14;3;2;1863;6;8;518;16;4;17;2688;3;18;199;17;5;0;0;0;0;0;0;0;0;6;96;5097;4;32;37;470;448;25;7;7;3695;6;14;452;19;8;6;3706;6;15;451;18;9;2;2014;3;10;500;14
03.02.21;14:15:00;1;414;7024;0;2;66;2934;4;95;366;14;3;4;1863;6;9;528;16;4;32;2687;3;33;198;17;5;0;0;0;0;0;0;0;0;6;125;5089;4;58;64;470;448;25;7;26;3695;6;59;404;19;8;36;3706;6;62;408;19;9;4;2014;6;8;532;14
03.02.21;14:10:00;1;378;6989;0;2;137;2928;4;170;370;14;3;78;1862;4;116;470;17;4;97;2684;3;101;215;17;5;0;0;0;0;0;0;0;0;6;211;5078;4;99;103;469;448;25;7;102;3693;4;142;430;19;8;102;3703;4;140;403;19;9;42;2014;6;62;500;15
03.02.21;14:05:00;1;387;6957;0;2;154;2917;4;188;374;14;3;88;1856;4;126;489;17;4;115;2676;5;120;224;17;5;0;0;0;0;0;0;0;0;6;235;5060;4;128;133;470;448;25;7;138;3685;4;175;450;19;8;147;3695;4;182;423;19;9;79;2011;4;108;488;15
03.02.21;14:00:00;1;370;6929;0;2;172;2905;4;204;368;14;3;99;1849;4;136;488;17;4;128;2667;5;133;223;17;5;0;0;0;0;0;0;0;0;6;260;5040;4;118;119;470;448;25;7;154;3674;4;193;443;19;8;155;3683;4;197;434;19;9;85;2005;4;114;476;15
03.02.21;13:55:00;1;368;6898;0;2;183;2891;4;217;376;14;3;107;1841;4;147;491;17;4;140;2656;5;146;225;17;5;0;0;0;0;0;0;0;0;6;267;5019;4;145;141;470;448;25;7;182;3661;4;214;458;19;8;179;3670;4;215;458;19;9;97;1998;4;126;492;15
03.02.21;13:50:00;1;415;6867;0;2;175;2875;4;209;364;14;3;97;1832;4;139;499;17;4;130;2645;5;135;224;18;5;0;0;0;0;0;0;0;0;6;258;4997;4;127;129;470;448;25;7;161;3646;4;197;427;19;8;163;3655;4;202;431;19;9;86;1989;4;116;486;16
03.02.21;13:45:00;1;308;6832;0;2;204;2861;4;239;377;15;3;123;1824;4;160;487;17;4;156;2634;5;162;223;18;5;0;0;0;0;0;0;0;0;6;291;4975;4;125;134;470;470;25;7;178;3632;4;218;430;19;8;178;3642;4;217;403;19;9;97;1982;4;129;480;16
03.02.21;13:40:00;1;308;6806;0;2;217;2844;4;252;378;15;3;128;1814;4;164;500;17;4;167;2621;5;173;225;18;5;0;0;0;0;0;0;0;0;6;338;4951;4;162;176;521;543;25;7;197;3617;4;234;434;19;8;201;3627;4;240;430;19;9;107;1974;4;138;498;16
03.02.21;13:35:00;1;309;6781;0;2;283;2826;4;320;386;15;3;173;1803;4;211;475;17;4;232;2607;5;242;226;18;5;0;0;0;0;0;0;0;0;6;445;4922;4;224;230;570;550;25;7;270;3601;4;301;455;19;8;267;3610;4;307;446;19;9;141;1965;4;174;511;16
03.02.21;13:30:00;1;320;6755;0;2;297;2802;4;337;391;15;3;184;1788;4;223;491;17;4;249;2588;5;259;229;18;5;0;0;0;0;0;0;0;0;6;471;4884;4;234;239;577;552;25;7;291;3578;4;337;479;20;8;305;3587;4;348;457;19;9;168;1953;4;199;513;16